| time (UTC) | temp C | wind direction | speed KPH | gust KPH | rain 1hr cm | rain 24hr cm | rain mn cm | humidity % | barometer mb |
| 20260902130204 | 18 | 243 | 16.1 | 32.2 | 0.00 | 1.37 | 0.10 | 92 | 1008.1 |
| 20260902124704 | 18 | 247 | 14.5 | 25.7 | 0.00 | 1.37 | 0.10 | 93 | 1007.8 |
| 20260902124204 | 18 | 251 | 17.7 | 27.4 | 0.00 | 1.37 | 0.10 | 93 | 1007.8 |
| 20260902123704 | 18 | 238 | 20.9 | 33.8 | 0.00 | 1.37 | 0.10 | 94 | 1007.7 |
| 20260902123204 | 18 | 241 | 17.7 | 27.4 | 0.00 | 1.37 | 0.10 | 94 | 1007.6 |
| 20260902122704 | 18 | 238 | 11.3 | 22.5 | 0.00 | 1.37 | 0.10 | 95 | 1007.5 |
| 20260902122205 | 18 | 248 | 16.1 | 27.4 | 0.00 | 1.37 | 0.10 | 95 | 1007.6 |
| 20260902121705 | 17 | 234 | 16.1 | 25.7 | 0.00 | 1.37 | 0.10 | 95 | 1007.6 |
| 20260902120704 | 18 | 235 | 11.3 | 19.3 | 0.00 | 1.37 | 0.10 | 95 | 1007.5 |
| 20260902120204 | 18 | 234 | 16.1 | 25.7 | 0.00 | 1.37 | 0.10 | 95 | 1007.5 |
| 20260902115704 | 18 | 219 | 9.7 | 19.3 | 0.00 | 1.37 | 0.10 | 95 | 1007.6 |
| 20260902114703 | 17 | 228 | 9.7 | 16.1 | 0.00 | 1.37 | 0.10 | 94 | 1007.7 |
| 20260902114203 | 18 | 242 | 8.0 | 16.1 | 0.00 | 1.37 | 0.10 | 94 | 1007.7 |
| 20260902113704 | 18 | 231 | 8.0 | 16.1 | 0.00 | 1.37 | 0.10 | 94 | 1007.6 |
| 20260902113203 | 18 | 230 | 9.7 | 16.1 | 0.00 | 1.37 | 0.10 | 94 | 1007.6 |
| 20260902112204 | 18 | 197 | 9.7 | 16.1 | 0.00 | 1.37 | 0.10 | 94 | 1007.7 |
| 20260902111704 | 17 | 205 | 9.7 | 16.1 | 0.00 | 1.37 | 0.10 | 94 | 1007.7 |
| 20260902111204 | 17 | 193 | 8.0 | 14.5 | 0.00 | 1.37 | 0.10 | 94 | 1007.7 |
| 20260902110704 | 17 | 231 | 9.7 | 16.1 | 0.00 | 1.37 | 0.10 | 94 | 1007.7 |
| 20260902110204 | 17 | 182 | 8.0 | 16.1 | 0.00 | 1.37 | 0.10 | 94 | 1007.7 |
| 20260902105703 | 17 | 208 | 11.3 | 20.9 | 0.00 | 1.37 | 0.10 | 94 | 1007.7 |
| 20260902105204 | 17 | 201 | 11.3 | 20.9 | 0.00 | 1.37 | 0.10 | 95 | 1007.7 |
| 20260902104204 | 17 | 217 | 9.7 | 19.3 | 0.00 | 1.37 | 0.10 | 95 | 1007.7 |
| 20260902103704 | 17 | 203 | 9.7 | 19.3 | 0.00 | 1.37 | 0.10 | 95 | 1007.7 |
| 20260902103204 | 17 | 218 | 9.7 | 14.5 | 0.00 | 1.40 | 0.10 | 95 | 1007.7 |
| 20260902102704 | 17 | 170 | 8.0 | 12.9 | 0.00 | 1.40 | 0.10 | 95 | 1007.7 |
| 20260902101204 | 17 | 177 | 6.4 | 12.9 | 0.00 | 1.40 | 0.10 | 96 | 1007.7 |
| 20260902100704 | 16 | 176 | 4.8 | 14.5 | 0.00 | 1.40 | 0.10 | 96 | 1007.8 |
| 20260902100203 | 16 | 158 | 8.0 | 14.5 | 0.00 | 1.40 | 0.10 | 96 | 1007.8 |
| 20260902095704 | 16 | 185 | 9.7 | 19.3 | 0.00 | 1.40 | 0.10 | 96 | 1007.8 |
| 20260902095204 | 16 | 177 | 8.0 | 19.3 | 0.00 | 1.40 | 0.10 | 96 | 1007.8 |
| 20260902094703 | 16 | 177 | 8.0 | 14.5 | 0.00 | 1.40 | 0.10 | 96 | 1007.9 |
| 20260902094204 | 16 | 160 | 9.7 | 19.3 | 0.00 | 1.42 | 0.10 | 96 | 1007.8 |
| 20260902093704 | 16 | 174 | 8.0 | 12.9 | 0.00 | 1.45 | 0.10 | 96 | 1007.9 |
| 20260902092204 | 15 | 194 | 9.7 | 14.5 | 0.00 | 1.45 | 0.10 | 96 | 1008.2 |
| 20260902091704 | 15 | 187 | 4.8 | 14.5 | 0.00 | 1.45 | 0.10 | 96 | 1008.2 |
| 20260902091204 | 15 | 193 | 11.3 | 19.3 | 0.00 | 1.45 | 0.10 | 96 | 1008.1 |
| 20260902090703 | 15 | 160 | 8.0 | 19.3 | 0.00 | 1.45 | 0.10 | 96 | 1008.1 |
| 20260902090204 | 15 | 182 | 8.0 | 19.3 | 0.00 | 1.45 | 0.10 | 96 | 1008.3 |
| 20260902085703 | 15 | 167 | 8.0 | 14.5 | 0.00 | 1.45 | 0.10 | 96 | 1008.3 |
| 20260902085204 | 15 | 183 | 8.0 | 11.3 | 0.00 | 1.45 | 0.10 | 96 | 1008.3 |
| 20260902084703 | 15 | 159 | 9.7 | 22.5 | 0.00 | 1.45 | 0.10 | 96 | 1008.3 |
| 20260902084204 | 15 | 202 | 8.0 | 19.3 | 0.00 | 1.45 | 0.10 | 96 | 1008.3 |
| 20260902083704 | 15 | 149 | 8.0 | 16.1 | 0.00 | 1.45 | 0.10 | 96 | 1008.3 |
| 20260902083205 | 15 | 158 | 9.7 | 19.3 | 0.00 | 1.45 | 0.10 | 96 | 1008.3 |
| 20260902082704 | 15 | 168 | 12.9 | 20.9 | 0.00 | 1.45 | 0.10 | 96 | 1008.2 |
| 20260902082204 | 15 | 130 | 9.7 | 19.3 | 0.00 | 1.45 | 0.10 | 96 | 1008.3 |
| 20260902081704 | 15 | 134 | 12.9 | 22.5 | 0.00 | 1.45 | 0.10 | 96 | 1008.1 |
| 20260902080704 | 15 | 140 | 9.7 | 20.9 | 0.00 | 1.45 | 0.10 | 96 | 1008.1 |
| 20260902080204 | 15 | 132 | 9.7 | 19.3 | 0.00 | 1.45 | 0.10 | 96 | 1008.1 |
| 20260902075204 | 15 | 175 | 8.0 | 20.9 | 0.00 | 1.45 | 0.10 | 96 | 1008.4 |
| 20260902074204 | 14 | 129 | 8.0 | 14.5 | 0.00 | 1.45 | 0.10 | 96 | 1008.4 |
| 20260902073203 | 14 | 137 | 8.0 | 16.1 | 0.00 | 1.45 | 0.10 | 96 | 1008.5 |
| 20260902072204 | 14 | 129 | 8.0 | 12.9 | 0.00 | 1.47 | 0.10 | 96 | 1008.5 |
| 20260902071703 | 14 | 123 | 4.8 | 14.5 | 0.00 | 1.47 | 0.10 | 96 | 1008.6 |
| 20260902071204 | 14 | 122 | 8.0 | 14.5 | 0.00 | 1.47 | 0.10 | 96 | 1008.6 |
| 20260902070704 | 14 | 125 | 8.0 | 16.1 | 0.00 | 1.50 | 0.10 | 96 | 1008.8 |
| 20260902065704 | 14 | 137 | 4.8 | 12.9 | 0.00 | 1.52 | 0.10 | 96 | 1008.9 |
| 20260902064204 | 13 | 136 | 8.0 | 14.5 | 0.00 | 1.65 | 0.10 | 96 | 1008.7 |
| 20260902063704 | 13 | 111 | 6.4 | 14.5 | 0.00 | 1.70 | 0.10 | 96 | 1009.0 |
| 20260902063204 | 13 | 129 | 4.8 | 12.9 | 0.00 | 1.70 | 0.10 | 96 | 1008.9 |
| 20260902062203 | 13 | 130 | 8.0 | 19.3 | 0.00 | 1.73 | 0.10 | 96 | 1009.1 |
| 20260902061704 | 13 | 144 | 11.3 | 20.9 | 0.00 | 1.73 | 0.10 | 96 | 1009.0 |
| 20260902060704 | 13 | 120 | 8.0 | 16.1 | 0.00 | 1.73 | 0.10 | 96 | 1009.1 |
| 20260902055204 | 13 | 135 | 8.0 | 16.1 | 0.00 | 1.73 | 0.10 | 96 | 1009.4 |
| 20260902054704 | 13 | 143 | 8.0 | 14.5 | 0.00 | 1.73 | 0.10 | 96 | 1009.5 |
| 20260902054203 | 13 | 139 | 8.0 | 12.9 | 0.00 | 1.73 | 0.10 | 96 | 1009.3 |
| 20260902053704 | 13 | 154 | 11.3 | 12.9 | 0.00 | 1.73 | 0.10 | 96 | 1009.4 |
| 20260902052703 | 13 | 111 | 3.2 | 11.3 | 0.00 | 1.73 | 0.10 | 96 | 1009.5 |
| 20260902052204 | 13 | 129 | 4.8 | 11.3 | 0.00 | 1.73 | 0.10 | 96 | 1009.8 |
| 20260902051704 | 13 | 119 | 4.8 | 11.3 | 0.00 | 1.73 | 0.10 | 96 | 1009.8 |
| 20260902050703 | 13 | 146 | 8.0 | 14.5 | 0.03 | 1.73 | 0.10 | 96 | 1009.9 |
| 20260902050204 | 13 | 133 | 6.4 | 14.5 | 0.03 | 1.73 | 0.10 | 96 | 1010.0 |
| 20260902045204 | 13 | 130 | 4.8 | 12.9 | 0.03 | 1.73 | 0.10 | 96 | 1010.3 |
| 20260902044703 | 13 | 146 | 4.8 | 11.3 | 0.05 | 1.73 | 0.10 | 96 | 1010.3 |
| 20260902043705 | 13 | 155 | 4.8 | 12.9 | 0.05 | 1.73 | 0.10 | 96 | 1010.3 |
| 20260902043204 | 13 | 152 | 8.0 | 12.9 | 0.05 | 1.73 | 0.10 | 96 | 1010.3 |
| 20260902042703 | 13 | 145 | 6.4 | 16.1 | 0.05 | 1.73 | 0.10 | 96 | 1010.4 |
| 20260902042204 | 13 | 132 | 8.0 | 12.9 | 0.08 | 1.73 | 0.10 | 96 | 1010.5 |
| 20260902041703 | 13 | 144 | 4.8 | 11.3 | 0.08 | 1.73 | 0.10 | 96 | 1010.5 |
| 20260902041204 | 13 | 155 | 4.8 | 16.1 | 0.08 | 1.70 | 0.08 | 95 | 1010.6 |
| 20260902040704 | 13 | 133 | 6.4 | 11.3 | 0.08 | 1.70 | 0.08 | 95 | 1010.7 |
| 20260902040204 | 13 | 135 | 3.2 | 8.0 | 0.08 | 1.73 | 0.08 | 95 | 1010.9 |
| 20260902035703 | 13 | 143 | 4.8 | 11.3 | 0.08 | 1.73 | 0.08 | 95 | 1010.9 |
| 20260902035204 | 13 | 143 | 4.8 | 9.7 | 0.08 | 1.73 | 0.08 | 95 | 1011.0 |
| 20260902034204 | 13 | 107 | 1.6 | 4.8 | 0.05 | 1.70 | 0.05 | 95 | 1011.1 |
| 20260902033704 | 13 | 112 | 3.2 | 11.3 | 0.05 | 1.68 | 0.05 | 95 | 1011.2 |
| 20260902032704 | 13 | 129 | 4.8 | 11.3 | 0.05 | 1.68 | 0.05 | 95 | 1011.2 |
| 20260902032204 | 13 | 125 | 4.8 | 12.9 | 0.03 | 1.65 | 0.03 | 95 | 1011.3 |
| 20260902031704 | 13 | 121 | 6.4 | 19.3 | 0.03 | 1.65 | 0.03 | 95 | 1011.2 |
| 20260902030704 | 13 | 152 | 3.2 | 14.5 | 0.00 | 1.65 | 0.00 | 95 | 1011.6 |
| 20260902030204 | 13 | 150 | 8.0 | 19.3 | 0.00 | 1.65 | 0.00 | 95 | 1011.6 |
| 20260902025703 | 13 | 153 | 9.7 | 14.5 | 0.00 | 1.65 | 0.00 | 95 | 1011.6 |
| 20260902025204 | 13 | 163 | 8.0 | 14.5 | 0.00 | 1.65 | 0.00 | 95 | 1011.6 |
| 20260902024704 | 13 | 151 | 6.4 | 16.1 | 0.00 | 1.65 | 0.00 | 95 | 1011.7 |
| 20260902024204 | 13 | 157 | 8.0 | 14.5 | 0.00 | 1.65 | 0.00 | 95 | 1011.7 |
| 20260902023705 | 13 | 164 | 9.7 | 16.1 | 0.00 | 1.65 | 0.00 | 95 | 1011.8 |
| 20260902022704 | 13 | 162 | 9.7 | 19.3 | 0.00 | 1.65 | 0.00 | 95 | 1012.0 |
| 20260902022204 | 13 | 161 | 8.0 | 12.9 | 0.00 | 1.65 | 0.00 | 95 | 1012.0 |
| 20260902021704 | 13 | 171 | 8.0 | 16.1 | 0.00 | 1.65 | 0.00 | 95 | 1012.1 |
| 20260902021204 | 13 | 172 | 6.4 | 11.3 | 0.00 | 1.65 | 0.00 | 95 | 1012.2 |
| 20260902020704 | 13 | 156 | 3.2 | 9.7 | 0.00 | 1.65 | 0.00 | 95 | 1012.2 |
| 20260902015204 | 13 | 162 | 4.8 | 9.7 | 0.00 | 1.65 | 0.00 | 95 | 1012.4 |
| 20260902014703 | 13 | 171 | 3.2 | 9.7 | 0.00 | 1.65 | 0.00 | 95 | 1012.5 |
| 20260902013703 | 13 | 164 | 6.4 | 11.3 | 0.00 | 1.65 | 0.00 | 95 | 1012.6 |
| 20260902013203 | 13 | 178 | 8.0 | 14.5 | 0.00 | 1.65 | 0.00 | 95 | 1012.6 |
| 20260902012204 | 13 | 175 | 8.0 | 16.1 | 0.00 | 1.65 | 0.00 | 95 | 1012.8 |
| 20260902011704 | 13 | 158 | 4.8 | 11.3 | 0.00 | 1.65 | 0.00 | 95 | 1012.9 |
| 20260902010704 | 14 | 175 | 4.8 | 9.7 | 0.00 | 1.65 | 0.00 | 95 | 1012.8 |
| 20260902010204 | 14 | 207 | 4.8 | 11.3 | 0.00 | 1.65 | 0.00 | 95 | 1012.8 |
| 20260902005203 | 14 | 179 | 6.4 | 12.9 | 0.00 | 1.65 | 0.00 | 96 | 1012.9 |
| 20260902004704 | 14 | 178 | 4.8 | 11.3 | 0.00 | 1.65 | 0.00 | 96 | 1012.9 |
| 20260902004204 | 14 | 174 | 4.8 | 12.9 | 0.00 | 1.65 | 0.00 | 96 | 1013.0 |
| 20260902003204 | 14 | 187 | 4.8 | 14.5 | 0.00 | 1.65 | 0.00 | 96 | 1013.3 |
| 20260902002704 | 14 | 186 | 6.4 | 11.3 | 0.00 | 1.65 | 0.00 | 96 | 1013.4 |
| 20260902002203 | 14 | 208 | 8.0 | 16.1 | 0.00 | 1.65 | 0.00 | 96 | 1013.5 |
| 20260902001705 | 14 | 213 | 8.0 | 12.9 | 0.00 | 1.65 | 0.00 | 96 | 1013.7 |
| 20260902001204 | 14 | 221 | 4.8 | 9.7 | 0.00 | 1.65 | 0.00 | 96 | 1013.6 |
| 20260902000704 | 14 | 189 | 4.8 | 8.0 | 0.00 | 1.65 | 0.00 | 96 | 1013.6 |
| 20260902000204 | 14 | 207 | 8.0 | 14.5 | 0.00 | 1.65 | 0.00 | 96 | 1013.5 |
| 20260901235704 | 14 | 207 | 3.2 | 4.8 | 0.00 | 1.65 | 0.00 | 96 | 1013.5 |
| 20260901235204 | 14 | 187 | 3.2 | 4.8 | 0.00 | 1.65 | 0.00 | 96 | 1013.6 |
| 20260901234204 | 14 | 192 | 3.2 | 4.8 | 0.00 | 1.65 | 0.00 | 96 | 1013.7 |
| 20260901233704 | 14 | 195 | 3.2 | 8.0 | 0.00 | 1.65 | 0.00 | 96 | 1013.7 |
| 20260901233204 | 14 | 178 | 4.8 | 9.7 | 0.00 | 1.65 | 0.00 | 96 | 1013.7 |
| 20260901232704 | 14 | 172 | 4.8 | 9.7 | 0.00 | 1.65 | 0.00 | 95 | 1013.9 |
| 20260901231704 | 14 | 173 | 4.8 | 9.7 | 0.00 | 1.65 | 0.00 | 95 | 1013.8 |
| 20260901231204 | 14 | 181 | 3.2 | 9.7 | 0.00 | 1.65 | 0.00 | 95 | 1013.9 |
| 20260901230704 | 14 | 210 | 3.2 | 8.0 | 0.00 | 1.65 | 0.00 | 96 | 1013.9 |
| 20260901230204 | 14 | 207 | 3.2 | 8.0 | 0.00 | 1.65 | 0.00 | 95 | 1013.9 |
| 20260901225704 | 14 | 218 | 4.8 | 8.0 | 0.00 | 1.65 | 1.65 | 95 | 1013.9 |
| 20260901225203 | 14 | 176 | 4.8 | 8.0 | 0.00 | 1.65 | 1.65 | 95 | 1014.0 |
| 20260901224704 | 14 | 175 | 3.2 | 8.0 | 0.00 | 1.65 | 1.65 | 95 | 1014.2 |
| 20260901224204 | 14 | 182 | 3.2 | 8.0 | 0.00 | 1.65 | 1.65 | 95 | 1014.2 |
| 20260901223703 | 14 | 179 | 1.6 | 4.8 | 0.00 | 1.65 | 1.65 | 95 | 1014.3 |
| 20260901223204 | 14 | 190 | 3.2 | 8.0 | 0.00 | 1.65 | 1.65 | 95 | 1014.2 |
| 20260901222703 | 15 | 192 | 4.8 | 9.7 | 0.00 | 1.65 | 1.65 | 95 | 1014.2 |
| 20260901221704 | 15 | 215 | 4.8 | 9.7 | 0.00 | 1.65 | 1.65 | 95 | 1014.2 |
| 20260901220704 | 15 | 213 | 4.8 | 9.7 | 0.00 | 1.65 | 1.65 | 95 | 1014.3 |
| 20260901220204 | 15 | 193 | 3.2 | 8.0 | 0.00 | 1.65 | 1.65 | 95 | 1014.3 |
| 20260901215704 | 15 | 0 | 3.2 | 4.8 | 0.00 | 1.65 | 1.65 | 95 | 1014.3 |
| 20260901215204 | 15 | 200 | 4.8 | 9.7 | 0.00 | 1.65 | 1.65 | 95 | 1014.3 |
| 20260901214703 | 15 | 200 | 4.8 | 9.7 | 0.00 | 1.65 | 1.65 | 95 | 1014.3 |
| 20260901214204 | 15 | 219 | 4.8 | 12.9 | 0.00 | 1.65 | 1.65 | 95 | 1014.3 |
| 20260901213704 | 15 | 213 | 8.0 | 14.5 | 0.00 | 1.65 | 1.65 | 94 | 1014.4 |
| 20260901213204 | 15 | 225 | 8.0 | 14.5 | 0.00 | 1.65 | 1.65 | 95 | 1014.5 |
| 20260901212704 | 15 | 220 | 8.0 | 14.5 | 0.00 | 1.65 | 1.65 | 95 | 1014.7 |
| 20260901212204 | 15 | 215 | 9.7 | 19.3 | 0.00 | 1.65 | 1.65 | 95 | 1014.7 |
| 20260901210704 | 15 | 217 | 8.0 | 14.5 | 0.00 | 1.65 | 1.65 | 95 | 1014.5 |
| 20260901210204 | 15 | 0 | 8.0 | 11.3 | 0.00 | 1.65 | 1.65 | 95 | 1014.4 |
| 20260901205203 | 15 | 244 | 6.4 | 11.3 | 0.00 | 1.65 | 1.65 | 95 | 1014.5 |
| 20260901204704 | 15 | 221 | 4.8 | 11.3 | 0.00 | 1.65 | 1.65 | 95 | 1014.5 |
| 20260901204204 | 15 | 213 | 8.0 | 12.9 | 0.00 | 1.65 | 1.65 | 95 | 1014.4 |
| 20260901203204 | 15 | 208 | 8.0 | 11.3 | 0.00 | 1.65 | 1.65 | 95 | 1014.5 |
| 20260901202703 | 15 | 222 | 8.0 | 12.9 | 0.00 | 1.65 | 1.65 | 95 | 1014.5 |
| 20260901201704 | 15 | 217 | 8.0 | 12.9 | 0.00 | 1.65 | 1.65 | 95 | 1014.5 |
| 20260901200204 | 15 | 208 | 4.8 | 9.7 | 0.00 | 1.65 | 1.65 | 95 | 1014.4 |
| 20260901195704 | 15 | 219 | 4.8 | 9.7 | 0.00 | 1.65 | 1.65 | 95 | 1014.3 |
| 20260901195203 | 15 | 223 | 8.0 | 11.3 | 0.00 | 1.65 | 1.65 | 95 | 1014.3 |
| 20260901194703 | 15 | 226 | 8.0 | 14.5 | 0.00 | 1.65 | 1.65 | 95 | 1014.3 |
| 20260901194204 | 15 | 220 | 4.8 | 9.7 | 0.00 | 1.65 | 1.65 | 95 | 1014.3 |
| 20260901193204 | 15 | 209 | 4.8 | 9.7 | 0.00 | 1.65 | 1.65 | 95 | 1014.3 |
| 20260901192204 | 15 | 213 | 4.8 | 9.7 | 0.00 | 1.65 | 1.65 | 95 | 1014.3 |
| 20260901191703 | 15 | 218 | 6.4 | 12.9 | 0.00 | 1.65 | 1.65 | 95 | 1014.3 |
| 20260901191203 | 15 | 235 | 4.8 | 9.7 | 0.00 | 1.65 | 1.65 | 95 | 1014.3 |
| 20260901190204 | 15 | 227 | 4.8 | 12.9 | 0.00 | 1.65 | 1.65 | 95 | 1014.3 |
| 20260901185704 | 15 | 233 | 8.0 | 9.7 | 0.00 | 1.70 | 1.65 | 95 | 1014.3 |
| 20260901185204 | 16 | 238 | 6.4 | 12.9 | 0.00 | 1.73 | 1.65 | 95 | 1014.3 |
| 20260901184703 | 16 | 237 | 4.8 | 11.3 | 0.00 | 1.73 | 1.65 | 95 | 1014.3 |
| 20260901184204 | 16 | 215 | 4.8 | 14.5 | 0.00 | 1.73 | 1.65 | 95 | 1014.3 |
| 20260901183703 | 16 | 220 | 8.0 | 14.5 | 0.00 | 1.73 | 1.65 | 95 | 1014.3 |
| 20260901183204 | 16 | 213 | 8.0 | 12.9 | 0.00 | 1.73 | 1.65 | 95 | 1014.3 |
| 20260901182704 | 16 | 217 | 6.4 | 12.9 | 0.00 | 1.73 | 1.65 | 95 | 1014.3 |
| 20260901182205 | 16 | 203 | 4.8 | 9.7 | 0.00 | 1.73 | 1.65 | 95 | 1014.4 |
| 20260901181204 | 16 | 236 | 4.8 | 11.3 | 0.00 | 1.73 | 1.65 | 95 | 1014.4 |
| 20260901180704 | 16 | 240 | 6.4 | 12.9 | 0.00 | 1.73 | 1.65 | 95 | 1014.4 |
| 20260901180204 | 16 | 226 | 4.8 | 9.7 | 0.00 | 1.73 | 1.65 | 95 | 1014.4 |
| 20260901175703 | 16 | 229 | 4.8 | 9.7 | 0.00 | 1.73 | 1.65 | 95 | 1014.4 |
| 20260901175204 | 16 | 204 | 4.8 | 11.3 | 0.00 | 1.73 | 1.65 | 95 | 1014.4 |
| 20260901174704 | 16 | 197 | 4.8 | 8.0 | 0.00 | 1.73 | 1.65 | 95 | 1014.5 |
| 20260901174203 | 16 | 239 | 6.4 | 9.7 | 0.00 | 1.73 | 1.65 | 95 | 1014.5 |
| 20260901173204 | 16 | 240 | 6.4 | 11.3 | 0.00 | 1.73 | 1.65 | 95 | 1014.5 |
| 20260901172704 | 16 | 228 | 4.8 | 12.9 | 0.00 | 1.73 | 1.65 | 96 | 1014.4 |
| 20260901172204 | 16 | 224 | 6.4 | 14.5 | 0.00 | 1.73 | 1.65 | 96 | 1014.4 |
| 20260901171704 | 16 | 241 | 9.7 | 19.3 | 0.00 | 1.73 | 1.65 | 96 | 1014.5 |
| 20260901171204 | 16 | 237 | 9.7 | 19.3 | 0.00 | 1.73 | 1.65 | 96 | 1014.4 |
| 20260901170203 | 16 | 243 | 9.7 | 16.1 | 0.00 | 1.73 | 1.65 | 96 | 1014.4 |
| 20260901165704 | 16 | 270 | 9.7 | 19.3 | 0.00 | 1.73 | 1.65 | 96 | 1014.4 |
| 20260901165204 | 16 | 238 | 8.0 | 19.3 | 0.00 | 1.73 | 1.65 | 96 | 1014.5 |
| 20260901163203 | 16 | 233 | 8.0 | 12.9 | 0.00 | 1.75 | 1.65 | 96 | 1014.7 |
| 20260901162703 | 16 | 232 | 9.7 | 16.1 | 0.00 | 1.75 | 1.65 | 96 | 1014.8 |
| 20260901162204 | 16 | 245 | 9.7 | 14.5 | 0.00 | 1.75 | 1.65 | 96 | 1014.7 |
| 20260901161204 | 16 | 220 | 9.7 | 16.1 | 0.00 | 1.75 | 1.65 | 96 | 1014.6 |
| 20260901160704 | 16 | 219 | 9.7 | 16.1 | 0.00 | 1.75 | 1.65 | 96 | 1014.7 |
| 20260901160204 | 16 | 207 | 8.0 | 12.9 | 0.00 | 1.75 | 1.65 | 96 | 1014.7 |
| 20260901155704 | 16 | 215 | 8.0 | 14.5 | 0.03 | 1.75 | 1.65 | 96 | 1014.6 |
| 20260901155203 | 16 | 216 | 8.0 | 19.3 | 0.08 | 1.75 | 1.65 | 96 | 1014.7 |
| 20260901154205 | 16 | 193 | 8.0 | 14.5 | 0.41 | 1.75 | 1.65 | 96 | 1014.6 |
| 20260901153704 | 16 | 181 | 6.4 | 11.3 | 0.56 | 1.75 | 1.65 | 96 | 1014.7 |
| 20260901153204 | 15 | 223 | 6.4 | 14.5 | 0.64 | 1.75 | 1.65 | 96 | 1014.7 |
| 20260901152704 | 15 | 240 | 4.8 | 11.3 | 0.64 | 1.75 | 1.65 | 96 | 1014.6 |
| 20260901151704 | 15 | 235 | 4.8 | 4.8 | 0.66 | 1.75 | 1.65 | 96 | 1014.7 |
| 20260901151204 | 15 | 247 | 4.8 | 9.7 | 0.66 | 1.75 | 1.65 | 96 | 1014.8 |
| 20260901150704 | 15 | 239 | 3.2 | 11.3 | 0.69 | 1.75 | 1.65 | 96 | 1014.7 |
| 20260901150204 | 15 | 248 | 6.4 | 14.5 | 0.74 | 1.75 | 1.65 | 96 | 1015.0 |
| 20260901145704 | 15 | 242 | 8.0 | 14.5 | 0.79 | 1.75 | 1.63 | 96 | 1015.0 |
| 20260901145204 | 15 | 250 | 4.8 | 11.3 | 0.79 | 1.68 | 1.55 | 96 | 1014.9 |
| 20260901144704 | 15 | 284 | 4.8 | 11.3 | 0.69 | 1.55 | 1.42 | 96 | 1015.0 |
| 20260901144204 | 15 | 254 | 4.8 | 11.3 | 0.51 | 1.37 | 1.24 | 96 | 1014.9 |
| 20260901143703 | 15 | 245 | 4.8 | 9.7 | 0.38 | 1.19 | 1.09 | 96 | 1015.1 |
| 20260901143204 | 15 | 252 | 6.4 | 11.3 | 0.33 | 1.12 | 0.99 | 96 | 1015.0 |
| 20260901142704 | 15 | 243 | 4.8 | 11.3 | 0.38 | 1.12 | 0.99 | 96 | 1014.9 |
| 20260901142204 | 15 | 272 | 6.4 | 14.5 | 0.43 | 1.12 | 0.99 | 96 | 1015.0 |
| 20260901141704 | 15 | 264 | 4.8 | 12.9 | 0.46 | 1.09 | 0.99 | 96 | 1014.9 |
| 20260901141204 | 14 | 268 | 8.0 | 16.1 | 0.48 | 1.09 | 0.99 | 95 | 1014.9 |
| 20260901140704 | 14 | 246 | 6.4 | 9.7 | 0.51 | 1.09 | 0.97 | 95 | 1015.0 |
| 20260901140204 | 14 | 256 | 4.8 | 9.7 | 0.53 | 1.02 | 0.89 | 95 | 1015.0 |
| 20260901135704 | 15 | 234 | 4.8 | 11.3 | 0.46 | 0.94 | 0.81 | 95 | 1015.1 |
| 20260901135203 | 15 | 239 | 8.0 | 14.5 | 0.43 | 0.89 | 0.79 | 95 | 1015.0 |
| 20260901134704 | 15 | 256 | 9.7 | 16.1 | 0.38 | 0.86 | 0.74 | 95 | 1015.2 |
| 20260901134204 | 15 | 262 | 9.7 | 19.3 | 0.36 | 0.84 | 0.71 | 95 | 1015.0 |
| 20260901133704 | 15 | 269 | 9.7 | 16.1 | 0.33 | 0.81 | 0.71 | 95 | 1015.0 |
| 20260901133204 | 15 | 255 | 11.3 | 19.3 | 0.30 | 0.79 | 0.66 | 95 | 1015.1 |
| 20260901132704 | 15 | 251 | 11.3 | 20.9 | 0.25 | 0.74 | 0.61 | 95 | 1015.0 |
| 20260901132204 | 15 | 271 | 11.3 | 19.3 | 0.20 | 0.69 | 0.56 | 95 | 1015.0 |
| 20260901131703 | 15 | 251 | 14.5 | 24.1 | 0.15 | 0.64 | 0.51 | 94 | 1015.1 |